Hourly Data Report for October 12, 2014

All times are specified in Local Standard Time (LST). Add 1 hour to adjust for Daylight Saving Time where and when it is observed.

CLYDE RIVER A
NUNAVUT

70°29'09.000" N
68°31'01.000" W
26.50 m
2400804
71090
YCY

Download Data

Hourly Data (October 2014)
Hourly Data Report for October 12, 2014
Temp Definition
°C
Dew Point Temp Definition
°C
Rel Hum Definition
%
Wind Dir Definition
10's deg

Wind Spd Definition
km/h
Visibility Definition
km
Stn Press Definition
kPa
Hmdx Definition


Wind Chill Definition


Weather Definition


TIME
00:00 Legend Double Dagger 0.6 0.5 99 10 15 1.2 100.08     Rain,Fog
01:00 Legend Double Dagger 0.3 0.2 99 8 11 1.6 100.09     Snow
02:00 Legend Double Dagger 0.3 0.2 99 8 18 4.0 100.07     Snow
03:00 Legend Double Dagger 0.6 0.5 99 9 26 2.0 100.03     Rain,Fog
04:00 Legend Double Dagger 0.5 0.4 99 6 21 11.3 99.99     Rain,Snow
05:00 Legend Double Dagger 0.7 0.6 99 5 26 4.8 99.92     Rain,Fog
06:00 Legend Double Dagger 1.1 1.0 99 7 35 9.7 99.84     Rain,Fog
07:00 Legend Double Dagger 0.8 -0.7 90 12 43 16.1 99.87     LegendNANA
08:00 Legend Double Dagger 0.5 -1.4 87 11 35 16.1 99.94     LegendNANA
09:00 Legend Double Dagger 0.6 -2.3 81 9 45 16.1 99.84     LegendNANA
10:00 Legend Double Dagger 0.2 -1.1 91 13 41 16.1 99.78     LegendNANA
11:00 Legend Double Dagger 0.7 -2.7 78 16 32 16.1 99.98     LegendNANA
12:00 Legend Double Dagger 0.1 -3.6 77 16 45 16.1 100.16     LegendNANA
13:00 Legend Double Dagger -0.2 -3.3 80 16 39 16.1 100.33   -8 LegendNANA
14:00 Legend Double Dagger -0.3 -2.7 84 15 30 16.1 100.48   -7 LegendNANA
15:00 Legend Double Dagger -0.6 -2.2 89 14 26 16.1 100.57   -7 LegendNANA
16:00 Legend Double Dagger -1.0 -2.1 92 16 15 16.1 100.66   -6 LegendNANA
17:00 Legend Double Dagger -1.4 -2.4 93 14 9 16.1 100.71   -5 LegendNANA
18:00 Legend Double Dagger -0.4 -1.8 90 12 24 16.1 100.74   -6 LegendNANA
19:00 Legend Double Dagger -0.6 -2.0 90 14 13 16.1 100.75   -5 LegendNANA
20:00 Legend Double Dagger 0.0 -2.0 87 9 5 16.1 100.78   -2 LegendNANA
21:00 Legend Double Dagger -0.4 -1.5 92 LegendMM 4 2.8 100.79   -2 Snow
22:00 Legend Double Dagger -1.6 -3.2 89 LegendMM 8 3.2 100.82   -5 Snow
23:00 Legend Double Dagger -3.0 -3.9 93   0 16.1 100.84     LegendNANA

Notes on Data Quality.

Legend

  • E = Estimated
  • M = Missing
  • NA = Not Available
  • ‡ = Partner data that is not subject to review by the National Climate Archives
Date modified: